Jaipur, India

12:48 AM IST on July 29, 2017 (GMT +0530)
Jaipur

Weather History for VIJP - December, 2012

Change the Weather History Date:

Tuesday, December 4, 2012

  Actual Average Record
Temperature  
Mean Temperature 66 °F -  
Max Temperature 82 °F - - ()
Min Temperature 51 °F - - ()
Cooling Degree Days 2    
Growing Degree Days 16 (Base 50)    
Moisture  
Dew Point 45 °F    
Average Humidity 49    
Maximum Humidity 72    
Minimum Humidity 19    
Precipitation  
Precipitation 0.00 in - - ()
Sea Level Pressure  
Sea Level Pressure 30.04 in    
Wind  
Wind Speed 1 mph ()    
Max Wind Speed 6 mph    
Max Gust Speed -    
Visibility 1.4 miles    
Events      
T = Trace of Precipitation, MM = Missing Value Source: Averaged Metar Reports

Daily Weather History Graph

Daily Weather History Graph

Search for Another Location

Airport or City:

Trip Planner

Search our weather history database for the weather conditions in past years. The results will help you decide how hot, cold, wet, or windy it might be!

Date:

Astronomy

Dec. 04, 2012 Rise Set
Actual Time 7:00 AM IST 5:33 PM IST
Civil Twilight 6:35 AM IST 5:58 PM IST
Nautical Twilight 6:06 AM IST 6:27 PM IST
Astronomical Twilight 5:38 AM IST 6:55 PM IST
Moon 10:34 PM IST (12/4) 10:56 AM IST (12/4)
Length of Visible Light 11h 23m
Length of Day
10h 32m
Waning Gibbous, 73% of the Moon is Illuminated
Dec 4
Waning Gibbous
Dec 6
Last Quarter
Dec 13
New
Dec 20
First Quarter
Dec 28
Full

Hourly Weather History & Observations

Time (IST) Temp. Dew Point Humidity Pressure Visibility Wind Dir Wind Speed Gust Speed Precip Events Conditions
1:00 AM 57.2 °F 42.8 °F 59% 30.06 in 1.6 mi Calm Calm - N/A   Smoke
2:00 AM 55.4 °F 44.6 °F 67% 30.04 in 1.6 mi Calm Calm - N/A   Smoke
2:30 AM 55 °F 47 °F 67% 30.04 in 1 mi Calm Calm - -   Smoke
3:00 AM 53.6 °F 44.6 °F 72% 30.04 in 1.6 mi Calm Calm - N/A   Smoke
4:00 AM 53.6 °F 42.8 °F 67% 30.04 in 1.6 mi Calm Calm - N/A   Smoke
5:00 AM 53.6 °F 42.8 °F 67% 30.04 in 1.6 mi Calm Calm - N/A   Smoke
6:00 AM 51.8 °F 42.8 °F 71% 30.04 in 1.6 mi Calm Calm - N/A   Smoke
8:00 AM 57.2 °F 44.6 °F 63% 30.06 in 0.9 mi Calm Calm - N/A   Partly Cloudy
8:30 AM 59 °F 49 °F 60% 30.06 in 1 mi Calm Calm - -   Smoke
9:00 AM 66.2 °F 42.8 °F 43% 30.09 in 1.2 mi Calm Calm - N/A   Smoke
10:00 AM 69.8 °F 41.0 °F 35% 30.12 in 1.6 mi Calm Calm - N/A   Smoke
11:00 AM 71.6 °F 42.8 °F 35% 30.12 in 1.6 mi SW 3.5 mph - N/A   Smoke
1:00 PM 77.0 °F 44.6 °F 32% 30.06 in 1.9 mi WNW 4.6 mph - N/A   Haze
2:00 PM 78.8 °F 44.6 °F 30% 30.04 in 2.2 mi Variable 5.8 mph - N/A   Haze
2:30 PM 80 °F 45 °F 19% 29.96 in 1 mi WNW 5.8 mph - -   Haze
3:00 PM 78.8 °F 44.6 °F 30% 30.01 in 2.2 mi Variable 4.6 mph - N/A   Haze
4:00 PM 78.8 °F 44.6 °F 30% 30.01 in 2.5 mi NNW 4.6 mph - N/A   Haze
5:00 PM 77.0 °F 44.6 °F 32% 29.98 in 2.2 mi Variable 3.5 mph - N/A   Haze
5:30 PM 76 °F 45 °F 22% 29.94 in 1 mi NNW 2.3 mph - -   Haze
7:00 PM 66.2 °F 48.2 °F 52% 30.01 in 1.0 mi Calm Calm - N/A   Smoke
8:00 PM 64.4 °F 48.2 °F 56% 30.04 in 1.0 mi Calm Calm - N/A   Smoke
8:30 PM 64.4 °F 50.0 °F 59% 30.04 in 1.0 mi Calm Calm - N/A   Smoke
9:00 PM 66.2 °F 48.2 °F 52% 30.04 in 1.2 mi Calm Calm - N/A   Smoke
10:00 PM 62.6 °F 44.6 °F 52% 30.04 in 1.2 mi Calm Calm - N/A   Smoke
11:00 PM 62.6 °F 42.8 °F 48% 30.06 in 1.2 mi Calm Calm - N/A   Smoke
11:30 PM 60 °F 46 °F 50% 30.01 in 1 mi Calm Calm - -   Smoke
11:30 PM 60.8 °F 44.6 °F 55% 30.04 in 1.2 mi Calm Calm - N/A   Smoke